This demonstration page uses our WeatherBlox Daily Observations layout. Learn more.

Left ArrowRight Arrow

Hourly Observations for August 30, 2019

Temp ( °F °C ) Dew Point ( °F °C ) Humidity (%) Winds ( mph kmh ) Pressure ( in mb ) Visibility ( mi km ) Precip ( " mm )
12:53 am 00:53 Mostly Cloudy 87 30.6 70 21.1 57 57 SSE 14 22 29.96 1014 10 16 0.00 0.00
1:53 am 01:53 Partly Cloudy 85 29.4 71 21.7 63 63 SSE 9 15 29.95 1014 10 16 0.00 0.00
2:53 am 02:53 Mostly Clear 83 28.3 71 21.7 67 67 S 8 13 29.96 1015 10 16 0.00 0.00
3:53 am 03:53 Partly Cloudy 82 27.8 71 21.7 69 69 SSE 8 13 29.95 1014 10 16 0.00 0.00
4:53 am 04:53 Mostly Cloudy 82 27.8 71 21.7 69 69 SSE 9 15 29.97 1015 10 16 0.00 0.00
5:53 am 05:53 Mostly Cloudy 81 27.2 71 21.7 72 72 SSE 9 15 29.98 1015 10 16 0.00 0.00
6:53 am 06:53 Mostly Cloudy 80 26.7 72 22.2 76 76 S 7 11 29.99 1016 10 16 0.00 0.00
7:53 am 07:53 Mostly Cloudy 80 26.7 72 22.2 76 76 SSE 9 15 30.00 1016 10 16 0.00 0.00
8:53 am 08:53 Mostly Cloudy 82 27.8 72 22.2 72 72 SSE 8 13 30.01 1016 10 16 0.00 0.00
9:53 am 09:53 Mostly Cloudy 85 29.4 71 21.7 63 63 SSW 6 9 30.00 1016 10 16 0.00 0.00
10:53 am 10:53 Mostly Cloudy 88 31.1 70 21.1 55 55 S 8 13 30.01 1016 10 16 0.00 0.00
11:53 am 11:53 Partly Cloudy 91 32.8 69 20.6 49 49 VRB 7 11 30.01 1016 10 16 0.00 0.00
12:53 pm 12:53 Partly Cloudy 93 33.9 68 20 44 44 ESE 12 19 29.98 1015 10 16 0.00 0.00
1:53 pm 13:53 Mostly Cloudy 95 35 69 20.6 43 43 VRB 3 6 30.00 1016 10 16 0.00 0.00
2:15 pm 14:15 Mostly Cloudy 82 27.8 66 18.9 58 58 N 32 52 30.04 1017 8 13 0.00 0.00
2:23 pm 14:23 Mostly Cloudy with Thunderstorms 79 26.1 65 18.3 62 62 N 28 44 30.06 1018 8 13 0.00 0.00
2:42 pm 14:42 Cloudy with Strong Thunderstorms 73 23 68 20 83 83 N 21 33 30.07 1018 4 6 0.00 0.00
2:53 pm 14:53 Windy with Storms Likely 74 23.3 68 20 82 82 N 21 33 30.09 1019 7 11 0.06 1.52
3:53 pm 15:53 Cloudy with Thunderstorms 74 23.3 67 19.4 79 79 NE 12 19 30.07 1018 6 10 0.00 0.00
4:46 pm 16:46 Cloudy with Light Rain 75 24 68 20 78 78 ESE 7 11 30.03 1017 10 16 0.00 0.00
4:53 pm 16:53 Cloudy with Light Rain 75 23.9 68 20 79 79 E 7 11 30.01 1016 10 16 0.02 0.51
5:53 pm 17:53 Mostly Cloudy 79 26.1 65 18.3 62 62 SSE 15 24 29.86 1011 10 16 0.00 0.00
6:53 pm 18:53 Mostly Cloudy 79 26.1 68 20 69 69 NNW 6 9 29.89 1012 10 16 0.00 0.00
7:53 pm 19:53 Mostly Cloudy 77 25 70 21.1 79 79 N 7 11 29.92 1013 10 16 0.00 0.00
8:53 pm 20:53 Mostly Cloudy 76 24.4 69 20.6 79 79 ENE 5 7 29.97 1015 10 16 0.00 0.00
9:53 pm 21:53 Mostly Cloudy 76 24.4 67 19.4 74 74 NE 3 6 30.00 1016 10 16 0.00 0.00
10:53 pm 22:53 Mostly Cloudy 77 25 67 19.4 71 71 VRB 3 6 30.01 1016 10 16 0.00 0.00
11:53 pm 23:53 Mostly Cloudy 77 25 68 20 74 74 Calm 30.02 1017 10 16 0.00 0.00

Powered by Vaisala Xweather